[sarex] 2 Line ISS Keps 3-3

Dave Larsen PhD doc at volcano.net
Tue Mar 3 05:43:05 PST 2009


ISS
1 25544U 98067A   09062.31002558  .00010991  00000-0  89353-4 0  3829
2 25544 051.6402 129.2662 0009744 082.8723 044.1430 15.71248579589290



More information about the SAREX mailing list